Flag for Canada Weather past 2 weeks in Port Coquitlam, British Columbia, Canada

Now
63 °F

Mild.


Feels Like: 63 °F
Forecast: 58 / 63 °F
Wind: 5 mph from Northeast

Location: P. Meadows Coastal Station

Current Time: Aug 29, 2015 at 2:43:39 AM

Latest Report: Aug 29, 2015 at 2:00 AM


Visibility: N/A

Pressure: 29.65 "Hg

Humidity: 87%

Dew point: 59 °F

Location of Port CoquitlamLocation

Historic Weather in Port Coquitlam — Graph

°F

Port Coquitlam temperature yesterday

Maximum temperature yesterday: 69 °F (at 5:00 PM)
Minimum temperature yesterday: 60 °F (at 4:00 AM)
Average temperature yesterday: 64 °F

Past Weeks' High & Low Weather Summary

 TemperatureHumidityPressure
High88 °F (Aug 18, 5:00 PM)99% (Aug 22, 2:00 AM)30.27 "Hg (Aug 22, 2:00 AM)
Low50 °F (Aug 25, 5:00 AM)24% (Aug 27, 4:00 PM)29.72 "Hg (Aug 29, 12:00 AM)
Average66 °F68%30.01 "Hg
* Reported Midnight between Aug 13 and Aug 14 — Midnight between Aug 28 and Aug 29, Port Coquitlam, Weather by CustomWeather, © 2015

Note: Actual official high and low records may vary slightly from our data, if they occured in-between our weather recording intervals... More about our weather records

Advertising

Port Coquitlam weather history for previous 24 hours

 ConditionsComfort  
Time TempWeatherWind HumidityBarometerVisibility
12:00 AM
Sat, Aug 29
63 °FMild.7 mph89%29.72 "HgN/A
11:00 PM
Fri, Aug 28
63 °FMild.1 mph88%29.78 "HgN/A
10:00 PM64 °FMild.3 mph85%29.80 "HgN/A
9:00 PM64 °FMild.3 mph85%29.81 "HgN/A
8:00 PM65 °FMild.5 mph83%29.82 "HgN/A
7:00 PM67 °FMild.3 mph76%29.84 "HgN/A
6:00 PM68 °FMild.6 mph75%29.86 "HgN/A
5:00 PM69 °FMild.3 mph72%29.88 "HgN/A
4:00 PM69 °FMild.3 mph72%29.91 "HgN/A
3:00 PM68 °FMild.3 mph77%29.92 "HgN/A
2:00 PM66 °FMild.2 mph80%29.94 "HgN/A
1:00 PM63 °FMild.2 mph90%29.95 "HgN/A
12:00 PM61 °FCool.3 mph92%29.95 "HgN/A
11:00 AM60 °FCool.1 mph93%29.96 "HgN/A
10:00 AM60 °FCool.1 mph94%29.95 "HgN/A
9:00 AM60 °FCool.3 mph96%29.95 "HgN/A
8:00 AM60 °FCool.3 mph95%29.96 "HgN/A
7:00 AM60 °FCool.3 mph95%29.94 "HgN/A
6:00 AM60 °FCool.2 mph94%29.94 "HgN/A
5:00 AM61 °FCool.No wind93%29.95 "HgN/A
4:00 AM60 °FCool.5 mph92%29.94 "HgN/A
3:00 AM63 °FMild.3 mph86%29.94 "HgN/A
2:00 AM63 °FMild.2 mph85%29.96 "HgN/A
Weather by CustomWeather, © 2015

See weather overviewHow to use our weather pages